DELTA 1 DEB, 28443

Orbit data source: Space-Track

DELTA 1 DEB, 28443 is space debris in LEO originally from a launch on Thu, 08 Feb 1962 UTC launched from the Air Force Eastern Test Range (AFETR). Debris objects in space refer to the collection of defunct objects orbiting the Earth. Examples of debris include non-operational satellites, rocket bodies, and fragments generated from explosions, collisions, or faulty payload assembly.

Loading next visibility...
Identifier
28443, 1962-002E
Orbit
LEO
Country
Flag of USUS
Related business
Manufacturer
LM/EW
Mission
Spacecraft
Bus & Motor
Unknown
Mass
Unknown
Launch date (UTC)
1962-02-08 (64 years ago)
Launch vehicle
Unknown
Launch site
Air Force Eastern Test Range (AFETR)
Object type
Payload
Rocket body
Debris
Shape & HBR
Unknown
Radar Cross Section
Small (<0.1 m²)

Expand to show TLE details & history
Last TLE update: 12 hours ago

TLE from 12 hours ago
0 DELTA 1 DEB
1 28443U 62002E   25258.77589384  .00000325  00000-0  10669-3 0  9999
2 28443  48.2681 261.9909 0071757 179.5611 358.6062 14.58305869267289
Epoch: 2025-09-15T18:37Z
TLE epoch observation values (Epoch: 2025-09-15T18:37:17.227Z)
Latitude
1.32296°
Longitude
166.51949°
Altitude
648.078 km
Speed
7.562 km/s
True Right ascension
05h 23m 16s
True Declination
1° 18' 54"
Sunlit
Object was in daylight at epoch
Visualization orbit readout
Latitude
Unknown
Longitude
Unknown
Altitude
Unknown
Speed
Unknown
Apparent Right ascension
Unknown
Apparent Declination
Unknown
Sunlit
N/A
Visualization observer readout
Local Sidereal Time
23:30:29
Azimuth
Unknown
Elevation
Unknown
Doppler factor
Unknown
Orbital elements
Apogee altitude
750.467 km
Perigee altitude
648.89 km
Semi-major axis
7,077.816 km
Eccentricity
0.00718
Inclination
48.2681°
RAAN
261.9909°
Arg. of periapsis
179.5611°
True anomaly
358.58602°
Mean anomaly
358.6062°
Eccentric anomaly
358.59613°
Mean motion
3.64497 °/min
Orbital period
98.77 mins
BSTAR
0.00010669
Loading maneuver chart data...
Computing Atmospheric mass density...
Loading historical data...
Loading historical data...
Loading historical data...
Loading historical data...
Loading historical data...
Loading historical data...
Loading historical data...
Other satellites on launch #2 in the year 1962 (1962-02-08 UTC)

Documentation

Showing up to 5 results
|